Tracking 24122 objects as of 9-Dec-2021
HD Live streaming from Space Station
objects crossing your sky now

OPS 4682 DEB

Track OPS 4682 DEB now!
10-day predictions


NORAD ID: 14715
Int'l Code: 1965-027N
Perigee: 1,250.6 km
Apogee: 1,325.0 km
Inclination: 90.3 °
Period: 111.2 minutes
Semi major axis: 7658 km
RCS: 0.0213 m2 (small)
Launch date: April 3, 1965
Source: United States (US)
Launch site: AIR FORCE WESTERN TEST RANGE (AFWTR)

Note: This is SATELLITE DEBRIS
aabbcc
Your satellite tracking list
Your tracking list is empty




NASA's NSSDC Master Catalog

Two Line Element Set (TLE):
1 14715U 65027N   21342.15154023  .00000346  00000-0  11952-2 0  9994
2 14715  90.2867 310.2048 0048542 135.5141 239.6662 12.95267765794951
Source of the keplerian elements: AFSPC